FENGYUN 1C DEB *, 46990

Orbit data source: Space-Track

FENGYUN 1C DEB *, 46990 is space debris in LEO originally from a launch on Mon, 10 May 1999 UTC launched from the Taiyaun Space Center, China (TSC). Fengyun 1C debris stems from the Chinese weather satellite Fengyun-1C, which was intentionally destroyed by a Chinese anti-satellite missile in 2007. This event dramatically increased the amount of space debris, with thousands of trackable fragments posing hazards to satellites and human spaceflight. The Fengyun 1C debris cloud has become a focal point in discussions about space sustainability and the need for international regulations to prevent the creation of new debris.

Loading next visibility...
FENGYUN 1C DEB * details
Identifier
46990, 1999-025EZQ
Orbit
LEO
Last TLE update2 weeks ago
Origin
Flag of CNCASC (CN / PRC)
ManufacturerUnknown
MissionSpacecraft
Bus & MotorUnknown
MassUnknown
Launch date (UTC)
1999-05-10 (26 years ago)
Launch vehicleUnknown
Launch site
Taiyaun Space Center, China (TSC)
Object type
Payload
Rocket body
Debris
Shape & HBRUnknown
Radar Cross SectionSmall (<0.1 m²)

Expand to show TLE details & history

TLE from 2 weeks ago
0 FENGYUN 1C DEB *
1 46990U 99025EZQ 24336.89062017  .00016567  00000-0  44716-2 0  9993
2 46990  98.2618 201.4942 0420252  73.3473 302.0404 14.06414940205551
Epoch: 2024-12-01T21:22Z
Definitive object data (Epoch: 2024-12-01T21:22:29.582Z)
Latitude11.02628°
Longitude168.03601°
Altitude721.665 km
Speed7.574 km/s
True Right ascension13h 19m 31s
True Declination10° 57' 42"
Sunlit
Object was in daylight at TLE epoch
Visualization TLE readout
Latitude-55.49642°
Longitude-11.22948°
Altitude1,179.527 km
Speed7.117 km/s
Apparent Right ascension18h 31m 13s
Apparent Declination-81° 09' 16"
Sunlit
Object is in daylight
Visualization observer readout
Local Sidereal Time02:36:42
Azimuth190.527° SSW
Elevation-44.061°
Doppler factor1
Orbital elements
Apogee altitude1,173.369 km
Perigee altitude564.26 km
Semi-major axis7,246.951 km
Eccentricity0.0420252
Inclination98.2618°
RAAN201.4942°
Arg. of periapsis73.3473°
True anomaly297.8451°
Mean anomaly302.0404°
Eccentric anomaly299.95416°
Mean motion3.51812 °/min
BSTAR0.0044716
Orbital period102.33 mins
Loading maneuver chart data...
Loading historical data...
Loading historical data...
Loading historical data...
Loading historical data...
Loading historical data...
Loading historical data...
Loading historical data...

FENGYUN 1C DEB * Visibility forecast

Observer location: undefined°, undefined

Span
Click to sort rows by Start time (UTC) header in descending order
Start Az.
Max El. time (UTC)
Max El. Az.
Max El.
End time (UTC)
End Az.
8 mins2024-12-14 05:11:52.933Z342.876° N2024-12-14 05:15:52.933Z293.34° NW22.073°2024-12-14 05:19:52.933Z246.535° WSW
6 mins2024-12-14 15:01:52.933Z159.637° S2024-12-14 15:04:52.933Z35.959° NE43.844°2024-12-14 15:07:52.933Z350.809° N
10 mins2024-12-15 03:24:52.933Z33.739° NE2024-12-15 03:28:52.933Z99.233° ESE35.135°2024-12-15 03:34:52.933Z171.02° S
|